Vertical_Velocity
1 -2 -1 3 3 6 0 -1 -0 0 3 -4 1 -1 0 -1 1 1 1 -0 -0 0 0 1 0 0 -0 -0 -0 -1 -1 -0 -1 -0 0 1 1 1 1 0 -0 -0 -0
-2 2 2 1 3 1 -1 0 -4 1 3 3 0 1 0 -1 1 0 1 0 0 1 0 -0 0 0 -1 -1 -1 -1 -1 -2 -2 -2 -2 -1 -0 1 0 0 0 -1 -1
-3 -2 -4 5 13 -1 2 -10 -4 0 -1 2 0 1 0 -1 -0 1 1 1 1 -1 -0 0 0 0 -0 -0 -0 -0 -1 -1 -2 -2 -2 -1 -1 -5 -0 0 0 1 -0
5 -2 -6 5 -3 10 5 6 -7 5 3 -2 1 1 1 1 1 2 1 1 0 0 -0 -0 0 0 -0 -0 -0 -1 -1 -2 -2 -0 -1 -0 0 -1 -6 1 2 1 1
2 1 -5 -2 3 2 -5 4 7 -1 3 -3 1 2 -1 1 2 -0 1 1 1 -1 1 0 0 -0 0 -0 -1 -1 -1 -1 -2 -2 -1 0 0 1 0 -12 -4 -1 5
3 5 4 2 -2 1 17 11 -7 -2 -0 1 3 1 -0 2 2 1 1 0 1 1 1 -0 0 -0 -1 -0 -1 -1 -2 -1 -1 -1 -1 -0 -1 0 4 0 -8 -3 -10
0 2 -1 -2 1 -2 0 15 -11 1 1 1 0 3 -2 1 3 -0 1 -1 2 1 0 0 -1 -0 -1 -1 -0 0 -0 0 -0 -0 1 1 2 0 1 3 1 -4 -14
1 1 1 1 0 -1 5 2 0 1 -1 1 1 1 -1 1 1 2 -1 -0 2 0 -0 0 0 1 1 0 0 0 -0 -0 -1 -1 -1 -1 2 2 3 2 2 -12 -2
5 4 1 1 3 2 2 5 2 -1 2 1 1 2 -2 1 2 0 1 1 0 1 1 0 0 0 -1 -1 -1 -1 -1 -0 0 0 -1 -2 0 -1 0 3 4 7 1
2 2 3 3 2 5 4 3 3 1 2 1 1 1 -2 2 1 1 1 1 2 2 1 0 -1 -1 -1 -1 0 1 -1 -1 -1 -1 -1 1 2 0 0 2 3 4 8
2 2 4 5 4 3 2 0 -1 -1 1 2 1 -1 1 2 1 0 0 2 1 -0 -0 -0 0 1 0 -0 -0 -0 -1 -3 -2 1 -1 -2 -1 -1 1 2 3 -0 1
1 3 3 2 0 2 1 2 3 1 1 1 1 1 1 -0 1 2 1 -0 -1 -0 -0 -1 -2 -1 -1 -1 -2 -2 -0 -1 -0 0 -1 -1 -0 1 3 1 -3 -3 -2
1 0 0 0 -0 1 1 0 0 1 2 0 -1 -1 1 2 1 -0 -1 -1 -1 -1 -1 -1 -1 -1 -1 -1 0 -1 -1 -2 -2 -2 -2 -3 -3 -3 -2 -2 -3 -3 -2
2 1 1 1 1 1 0 0 0 0 -2 -0 2 2 1 0 0 0 0 1 0 0 0 -1 -1 -2 -1 -0 0 1 -1 -0 -1 -1 -1 -1 -1 -2 -1 -1 -2 -1 -1
-0 0 -1 -0 1 1 0 0 1 1 2 1 1 1 2 2 1 0 -0 -1 -2 -2 -3 -2 -1 -1 -1 -2 -3 -3 -2 -2 -2 -1 -1 -1 -0 1 2 0 -2 -1 -1
1 1 1 0 -1 -1 -0 1 2 1 2 2 2 2 1 0 -0 -1 -1 -1 -0 -1 -1 -1 -1 -1 -0 -0 -0 1 -2 -2 -1 -3 -2 -1 -3 -3 -4 -5 -2 6 1
-3 -2 -1 -1 -0 -1 0 -0 1 2 3 3 1 1 -0 -1 -1 -1 -1 -1 -1 -1 -0 0 -1 -2 -2 -0 0 1 -1 -1 0 -2 -4 -5 -1 0 0 -0 -1 1 4
-3 -0 -1 -1 1 1 2 0 1 0 -0 -1 -2 -2 -1 -1 -1 -2 -2 -2 -2 -2 -4 -4 -4 -3 -2 -3 -3 -2 -2 -1 -2 -2 -1 -1 2 3 -2 -5 -4 0 -2
3 1 2 1 1 1 1 1 -0 1 1 1 2 1 1 0 0 -1 -0 -1 -2 -2 -1 -1 -1 -3 -1 -0 -1 0 -2 -3 -2 -0 1 -1 -3 1 -1 1 -5 -7 -8
2 -4 -0 0 2 0 1 -0 -1 -0 -1 -1 -1 -1 -0 -1 -1 -1 -2 -3 -2 -1 -1 -2 -0 -2 -4 -2 -1 0 -3 -3 0 3 -1 -2 -1 -0 -1 1 1 -2 -4
-5 -0 0 -2 1 2 2 2 2 1 1 1 2 1 -0 -1 -2 -2 -1 -0 -1 -3 -3 -5 -1 -1 -0 -2 -1 -0 0 -0 -3 -2 -3 -1 -0 -2 -3 5 10 0 3
-0 4 -0 2 1 1 0 0 1 0 -0 -0 0 1 -1 -2 -2 -4 -3 -3 -3 -2 2 1 1 2 1 0 -0 -0 -1 -0 2 1 1 -2 -1 1 6 -0 -2 -1 3
-3 -1 -0 -1 1 1 3 2 -0 0 2 1 -0 -2 -3 -4 -4 -2 -0 2 2 0 -2 -2 -2 -2 -1 -3 -0 -0 1 1 -0 -1 -2 6 1 -2 -4 1 -1 1 -1
-2 -1 -1 0 -2 3 1 3 2 1 -0 -2 -1 -2 -1 1 2 2 -1 -3 -1 -1 0 -1 -2 -2 -2 -2 -1 -3 -3 -4 -5 -2 -4 0 -0 3 3 3 3 1 1
1 2 -1 2 2 3 -4 1 0 1 -1 -2 -2 -2 -1 -1 0 -1 -2 -1 -2 -2 -4 -2 -1 -2 -1 -3 -0 4 5 4 5 10 2 -2 -2 -4 -2 -1 -2 -3 -2
1 2 5 5 3 -2 -1 0 -1 -1 -1 -1 1 1 -1 0 -0 -2 -1 2 1 4 2 1 3 3 0 -1 -1 -1 1 1 -1 -0 -4 -4 -1 -1 -1 -2 -1 -1 -0
Height
1507 1511 1514 1518 1520 1522 1526 1530 1534 1536 1538 1540 1543 1544 1546 1548 1549 1550 1550 1551 1551 1552 1553 1553 1552 1552 1552 1551 1550 1550 1549 1549 1547 1546 1545 1544 1544 1543 1543 1542 1541 1540 1539
1504 1507 1511 1514 1516 1519 1524 1527 1532 1535 1537 1540 1542 1544 1545 1547 1548 1549 1549 1550 1550 1551 1552 1552 1552 1552 1551 1550 1549 1549 1548 1547 1547 1546 1544 1544 1544 1543 1542 1541 1540 1539 1538
1500 1503 1508 1511 1514 1513 1515 1522 1529 1533 1536 1539 1540 1542 1543 1545 1546 1547 1548 1549 1549 1550 1551 1551 1551 1551 1550 1549 1549 1548 1547 1547 1546 1546 1546 1544 1543 1541 1540 1540 1539 1538 1537
1495 1498 1502 1505 1507 1512 1515 1520 1525 1531 1532 1535 1538 1540 1542 1543 1545 1546 1547 1547 1547 1548 1549 1549 1550 1550 1549 1548 1547 1547 1546 1545 1545 1545 1544 1544 1543 1542 1539 1538 1537 1536 1534
1489 1491 1495 1501 1507 1512 1512 1517 1522 1528 1530 1533 1537 1539 1541 1542 1542 1544 1545 1545 1546 1547 1547 1547 1548 1548 1548 1547 1546 1545 1545 1544 1544 1543 1543 1542 1541 1540 1538 1534 1532 1531 1530
1483 1488 1492 1496 1502 1510 1513 1510 1518 1526 1529 1531 1534 1536 1538 1540 1541 1541 1542 1544 1545 1545 1545 1545 1545 1546 1546 1545 1545 1544 1543 1542 1542 1541 1541 1540 1539 1537 1535 1532 1529 1525 1522
1479 1482 1485 1489 1497 1504 1511 1511 1511 1522 1526 1529 1532 1533 1535 1538 1538 1539 1541 1542 1543 1542 1543 1543 1543 1544 1543 1543 1543 1542 1541 1541 1540 1540 1539 1538 1536 1535 1533 1529 1525 1520 1517
1473 1478 1481 1487 1494 1501 1507 1510 1512 1517 1523 1526 1529 1530 1533 1536 1536 1537 1538 1540 1540 1540 1541 1541 1541 1542 1541 1541 1540 1540 1539 1538 1538 1537 1535 1535 1533 1532 1529 1526 1522 1513 1510
1469 1474 1479 1485 1492 1499 1505 1508 1511 1516 1521 1524 1526 1528 1530 1534 1534 1535 1536 1537 1538 1538 1539 1539 1540 1539 1539 1539 1538 1537 1536 1535 1534 1533 1532 1531 1529 1527 1525 1522 1519 1514 1504
1471 1476 1480 1486 1493 1499 1503 1507 1511 1515 1518 1521 1524 1525 1530 1531 1531 1533 1534 1535 1536 1536 1536 1537 1537 1537 1537 1536 1535 1534 1532 1531 1530 1529 1527 1526 1523 1521 1520 1517 1514 1511 1505
1474 1478 1483 1487 1492 1497 1501 1505 1509 1512 1516 1519 1521 1524 1527 1528 1530 1531 1533 1533 1534 1534 1535 1535 1535 1535 1534 1533 1532 1530 1529 1528 1526 1524 1522 1520 1517 1515 1513 1510 1507 1503 1500
1477 1480 1483 1487 1491 1495 1499 1502 1506 1510 1514 1517 1519 1523 1526 1527 1528 1529 1530 1531 1532 1532 1533 1533 1533 1532 1532 1530 1528 1526 1524 1522 1520 1518 1516 1514 1511 1508 1506 1502 1500 1497 1495
1475 1479 1482 1485 1489 1493 1497 1501 1504 1508 1512 1515 1519 1522 1524 1525 1526 1527 1528 1529 1530 1530 1530 1530 1530 1529 1528 1526 1523 1520 1518 1516 1513 1511 1508 1505 1502 1499 1497 1494 1492 1490 1487
1475 1477 1481 1485 1488 1492 1496 1499 1503 1508 1512 1515 1518 1520 1522 1523 1525 1526 1527 1528 1528 1528 1528 1527 1526 1525 1523 1520 1518 1515 1512 1510 1507 1504 1501 1498 1495 1492 1489 1486 1484 1481 1478
1477 1479 1481 1484 1488 1491 1496 1500 1504 1508 1511 1514 1516 1518 1520 1522 1523 1525 1526 1526 1526 1526 1525 1523 1522 1520 1517 1514 1511 1508 1506 1503 1501 1499 1496 1492 1489 1486 1483 1481 1477 1475 1471
1476 1479 1482 1485 1488 1492 1496 1500 1504 1507 1510 1513 1515 1517 1519 1521 1523 1524 1524 1524 1523 1522 1521 1519 1517 1514 1511 1508 1506 1503 1500 1497 1495 1492 1490 1487 1483 1480 1477 1474 1472 1470 1467
1473 1477 1480 1484 1488 1492 1496 1499 1503 1506 1509 1512 1514 1517 1518 1520 1521 1521 1521 1521 1520 1518 1516 1514 1511 1508 1506 1503 1501 1498 1495 1492 1489 1486 1484 1480 1478 1475 1470 1467 1465 1463 1461
1470 1475 1479 1483 1488 1492 1496 1499 1502 1505 1508 1511 1513 1515 1516 1517 1518 1518 1517 1516 1515 1513 1510 1508 1505 1502 1500 1498 1495 1493 1489 1487 1484 1482 1478 1475 1472 1469 1464 1460 1458 1456 1453
1467 1472 1478 1482 1486 1490 1494 1498 1502 1505 1507 1509 1511 1513 1514 1515 1515 1514 1513 1511 1509 1507 1504 1501 1499 1496 1494 1492 1489 1486 1483 1481 1478 1476 1473 1470 1466 1463 1460 1457 1452 1449 1446
1466 1470 1476 1481 1485 1489 1493 1496 1500 1503 1506 1508 1510 1511 1512 1512 1511 1510 1509 1507 1504 1502 1500 1497 1494 1490 1488 1487 1484 1481 1477 1474 1472 1469 1467 1465 1462 1458 1456 1452 1448 1444 1440
1464 1470 1475 1479 1484 1488 1491 1495 1499 1502 1504 1506 1507 1508 1508 1508 1507 1506 1503 1502 1500 1498 1495 1493 1490 1486 1483 1480 1477 1475 1472 1469 1465 1463 1460 1458 1456 1454 1451 1447 1443 1439 1434
1462 1468 1473 1479 1484 1489 1492 1495 1498 1500 1502 1504 1505 1505 1504 1503 1503 1502 1500 1497 1494 1491 1489 1485 1484 1482 1478 1475 1472 1468 1466 1465 1461 1458 1454 1452 1449 1446 1444 1441 1436 1431 1426
1461 1467 1473 1478 1483 1486 1490 1493 1495 1497 1499 1500 1501 1501 1500 1499 1498 1495 1494 1492 1490 1486 1483 1480 1477 1475 1472 1470 1467 1464 1461 1458 1455 1452 1448 1446 1443 1440 1436 1433 1427 1422 1417
1460 1466 1471 1475 1480 1484 1488 1491 1493 1494 1496 1497 1498 1498 1497 1495 1493 1490 1488 1486 1484 1481 1478 1474 1471 1468 1465 1463 1461 1459 1456 1452 1450 1447 1442 1439 1437 1433 1429 1423 1419 1415 1411
1460 1464 1469 1473 1477 1482 1485 1489 1490 1492 1492 1493 1493 1493 1492 1491 1488 1485 1482 1480 1478 1475 1472 1469 1466 1463 1460 1458 1457 1456 1452 1448 1445 1442 1436 1432 1429 1424 1420 1415 1411 1407 1403
1458 1463 1468 1471 1475 1479 1483 1486 1487 1488 1488 1490 1489 1488 1487 1485 1482 1479 1477 1476 1474 1471 1467 1464 1462 1458 1455 1453 1452 1450 1447 1443 1439 1435 1431 1426 1422 1418 1413 1409 1404 1401 1397